RH
55 58 61 65 69 71 70 74 77 78 80 77 75 77 78 80 78 78 76 72 74 78 82 87 88 88 86 81 82 86 81 67 62 64 66 73 77 81 82 77 75 72 72 72 76 77 72 72 71 70 69 69 69 69 69 70 69 66 60 53 52 52 46 47 45 36 32 35 39 41 42 45 47 50 50 50 49 47 45 44 43 42 42 42 42 42 43 46 48 51 54 54 55 55 55 57 59
54 55 57 63 67 70 69 68 70 72 76 75 74 76 77 79 79 80 78 75 77 79 80 83 86 86 86 85 85 88 81 67 68 70 64 66 71 79 82 79 75 72 75 73 72 73 72 75 74 72 71 71 71 70 70 69 69 67 62 56 54 50 45 48 41 31 32 37 40 42 44 47 49 50 51 50 49 47 46 45 45 45 44 44 43 43 45 49 52 52 57 60 62 62 57 59 61
52 54 57 63 66 69 68 67 70 69 73 76 73 75 79 81 82 80 76 76 78 80 79 81 85 86 86 86 84 86 79 68 74 72 63 63 65 74 83 80 78 77 78 75 71 72 75 78 76 73 72 74 72 71 69 69 69 66 62 57 53 47 46 48 37 30 33 38 41 44 47 49 51 51 53 53 52 51 49 48 48 48 45 45 46 46 48 53 56 55 58 60 63 63 59 60 61
53 55 56 62 66 66 67 68 70 68 73 75 72 75 80 83 82 78 74 75 78 79 79 78 83 85 85 86 83 83 79 73 77 71 64 66 66 70 78 78 77 78 80 78 72 72 76 76 75 72 72 73 70 68 67 68 68 65 62 55 48 45 48 45 33 31 36 40 43 46 48 50 52 53 56 57 56 53 50 50 50 49 45 44 47 48 50 53 56 58 60 61 61 61 58 58 58
54 58 58 62 67 66 64 66 66 65 70 73 72 76 80 80 80 78 78 80 81 81 79 77 78 79 83 88 86 83 81 78 75 70 68 68 69 69 73 78 76 77 78 77 75 74 77 76 76 74 71 69 65 64 64 66 66 64 58 49 45 46 49 42 33 34 39 42 46 47 49 51 53 56 58 58 56 53 52 50 50 50 47 45 48 50 52 53 53 55 58 60 60 60 59 58 57
55 60 61 61 66 67 63 64 64 62 65 69 72 76 77 79 80 77 77 81 84 84 82 80 79 77 81 88 87 82 79 77 71 70 71 67 67 67 70 79 77 78 79 77 77 76 77 76 75 75 71 65 60 60 62 64 63 60 52 45 44 47 48 39 34 37 41 45 47 48 50 52 54 57 57 56 55 55 54 52 52 51 49 48 49 51 52 52 52 54 58 59 58 58 60 59 57
54 59 60 61 63 64 61 61 62 60 63 66 70 75 76 81 82 76 74 77 82 85 86 86 85 81 81 85 84 78 72 71 69 70 72 64 63 63 66 78 76 74 78 78 77 77 76 74 74 74 70 62 57 58 59 60 58 53 46 43 44 48 46 38 36 40 44 46 47 48 50 53 55 57 57 57 57 57 56 55 54 52 50 49 51 52 52 54 55 55 58 58 57 57 59 59 58
53 56 58 60 58 57 56 57 60 61 64 67 70 75 76 79 81 78 75 74 76 78 80 82 84 83 81 81 78 71 66 66 67 69 70 62 61 62 62 70 69 64 68 73 75 77 75 72 72 72 68 61 57 57 56 57 53 48 44 42 45 47 44 38 39 43 45 47 47 48 50 53 56 58 59 59 58 57 56 56 56 54 52 51 52 52 52 55 58 58 59 59 56 55 55 56 57
53 56 57 56 53 51 52 54 58 61 63 64 70 76 78 77 78 78 74 71 73 71 70 73 80 84 80 77 70 63 63 64 65 67 65 59 59 60 59 61 60 58 61 66 70 74 72 71 73 71 66 60 58 56 53 53 49 45 44 43 45 46 44 40 41 44 46 47 47 49 51 54 57 59 60 59 58 57 57 56 56 56 54 53 52 52 53 56 59 60 59 54 48 45 47 50 54
56 59 58 53 50 47 47 50 54 59 61 63 68 74 77 74 75 79 74 70 70 66 61 66 76 82 77 70 63 59 60 61 61 63 60 56 57 59 58 58 59 59 60 62 66 68 68 69 73 71 65 61 59 55 51 50 47 45 44 44 45 45 44 42 43 44 45 47 47 49 52 55 57 58 58 57 58 59 57 55 54 55 55 53 52 53 53 56 59 58 53 46 42 40 40 43 48
59 61 59 51 49 46 45 48 50 57 61 65 67 69 74 72 71 76 73 68 67 63 57 61 68 73 73 63 59 59 58 58 60 59 56 55 56 59 58 57 59 60 62 62 63 66 67 67 70 68 64 62 60 56 51 48 46 45 45 45 45 45 44 44 44 44 45 46 47 49 52 54 56 57 58 58 59 59 56 55 55 54 55 54 53 54 54 57 57 53 49 46 44 45 45 45 46
60 61 59 51 50 48 47 47 48 54 61 65 64 66 72 69 65 65 64 64 62 63 61 58 58 65 67 57 55 57 56 57 59 57 55 56 56 57 57 56 57 60 63 62 61 63 65 65 67 65 64 63 60 57 51 46 44 44 44 43 44 45 45 44 43 44 45 46 47 49 52 54 54 57 59 59 59 58 56 57 57 55 55 56 54 55 57 57 55 53 51 50 49 49 52 55 53
61 61 58 51 50 49 48 48 46 53 59 62 62 63 65 62 61 60 59 60 60 66 65 54 54 64 61 52 51 53 53 54 55 55 54 55 55 55 55 56 57 59 60 59 57 59 61 63 65 63 62 62 60 57 52 44 42 41 40 41 43 45 44 43 42 43 44 45 47 49 52 52 53 57 55 54 55 56 57 57 59 58 57 58 57 57 58 58 57 56 54 53 53 52 57 60 58
62 62 59 52 49 47 48 48 46 50 55 58 62 62 62 60 61 59 56 56 57 64 65 54 54 60 52 45 45 45 48 49 51 54 52 52 53 52 53 56 59 58 57 55 53 54 57 61 63 62 61 61 59 58 53 45 40 37 37 40 43 43 42 42 42 43 44 45 48 50 51 51 53 54 51 52 54 56 57 57 59 60 59 60 60 59 59 58 56 54 53 53 54 57 59 58 56
63 64 61 52 46 45 47 47 46 49 52 56 60 61 62 62 59 57 55 56 56 57 63 59 54 55 49 44 40 38 42 44 47 51 52 52 52 51 50 52 56 56 54 54 52 51 53 57 59 58 58 58 59 59 56 50 42 35 35 39 41 40 40 41 41 42 44 46 49 51 50 49 51 50 49 53 56 56 55 55 58 60 61 60 59 58 56 53 50 49 51 53 55 57 56 53 53
64 65 60 51 44 45 47 46 45 48 50 55 59 58 59 60 58 57 56 56 56 54 60 61 55 55 53 49 45 38 37 41 44 48 50 51 52 52 49 49 52 53 51 51 51 51 51 52 51 51 52 53 55 58 57 54 46 37 35 37 38 38 40 41 41 42 44 48 50 52 50 48 47 46 48 52 53 53 52 53 55 59 60 56 51 50 48 44 44 49 53 56 57 56 54 52 50
61 61 57 49 44 44 46 44 43 45 50 55 56 55 55 55 53 57 59 57 57 54 55 58 54 54 54 52 49 42 38 39 43 46 47 48 49 50 50 49 49 50 49 49 50 49 48 49 48 46 47 48 50 53 52 50 45 39 36 37 37 38 39 40 41 43 47 50 52 52 50 48 45 45 47 49 51 52 53 52 51 54 54 49 43 42 45 47 49 54 57 58 56 56 59 57 51
54 54 51 45 42 43 44 42 40 42 50 54 50 48 48 44 42 49 56 54 54 53 52 55 53 53 53 52 50 44 38 37 40 43 44 45 44 44 45 46 47 47 47 48 49 48 46 46 46 44 43 44 44 45 45 41 39 37 36 37 37 37 39 40 42 45 49 51 52 52 50 47 45 46 48 50 53 53 55 54 51 51 51 48 48 49 49 52 55 57 57 56 55 61 64 59 51
50 49 47 41 41 41 41 40 37 38 45 48 42 44 43 37 36 41 46 46 46 46 48 51 52 54 53 53 53 46 40 38 40 43 44 43 43 40 39 40 42 44 44 45 47 47 45 42 41 41 39 39 39 39 38 37 36 35 35 35 36 37 39 41 44 48 51 53 53 52 51 48 46 49 52 54 56 54 56 57 52 51 49 49 55 57 54 55 58 59 59 59 61 68 67 60 51
50 50 45 37 40 39 40 38 34 37 41 41 39 42 44 38 36 39 41 43 41 37 38 42 45 51 52 52 53 50 46 43 42 45 47 45 44 43 38 37 37 38 41 43 45 45 43 39 36 36 35 35 36 35 34 34 35 35 35 35 36 38 41 44 47 50 53 54 54 53 52 51 51 53 55 57 57 55 58 57 53 55 54 52 56 57 55 59 63 63 68 72 71 74 72 65 60
49 47 39 35 39 36 39 38 33 39 39 38 40 43 43 38 37 40 39 36 35 33 32 34 38 43 46 49 51 52 51 47 43 46 50 47 45 45 41 39 38 38 40 41 42 41 40 38 33 32 32 32 33 32 32 33 34 35 36 37 39 41 44 47 49 51 52 53 53 53 52 51 52 54 54 56 57 56 60 61 57 62 64 60 61 59 58 63 68 68 71 78 77 76 74 71 71
46 41 37 38 41 38 39 38 36 40 38 35 39 41 39 36 37 39 34 27 29 34 34 35 37 35 37 45 47 50 53 49 42 44 49 46 44 46 42 40 41 38 36 37 38 38 37 35 31 30 30 31 31 31 32 33 34 36 38 39 41 43 45 47 49 50 50 50 50 52 52 51 52 54 55 56 56 56 61 66 62 65 69 65 63 63 63 65 70 69 68 74 75 76 75 76 80
42 38 37 38 41 41 39 38 38 43 43 38 36 38 36 34 35 35 31 27 26 32 36 38 39 33 33 42 45 46 52 49 41 43 46 43 43 45 40 37 37 34 33 33 35 35 34 31 30 31 30 30 31 32 32 33 35 37 39 41 43 44 46 48 49 50 50 51 51 54 54 54 55 57 57 56 56 56 59 64 62 63 66 66 64 63 64 65 67 68 69 74 75 78 78 78 79
41 38 38 38 41 41 39 38 38 42 47 43 37 36 35 33 34 34 31 27 25 29 36 39 41 37 32 38 45 46 51 49 41 44 47 44 44 45 42 36 34 34 33 32 31 31 29 28 30 32 31 31 31 32 33 34 36 38 39 41 43 44 46 47 49 52 53 53 53 54 54 55 59 60 60 57 54 56 57 58 60 60 59 59 58 58 61 63 64 65 67 69 69 72 74 72 67
40 38 37 38 39 38 38 39 38 39 43 44 41 35 33 33 33 33 30 27 26 27 33 38 40 41 35 35 43 47 51 49 42 43 46 46 47 47 45 39 36 36 34 32 30 28 28 27 30 32 30 30 31 32 33 35 36 37 39 41 42 43 45 47 50 53 54 53 52 51 50 53 60 62 59 56 57 60 57 53 55 57 55 56 56 56 58 58 59 60 63 65 67 68 69 64 55
38 37 36 38 37 35 35 36 37 38 39 42 44 40 36 34 33 33 31 27 27 29 32 35 38 41 37 31 37 44 48 47 40 39 42 44 45 45 45 41 39 39 36 34 31 29 28 29 30 30 29 30 31 32 33 35 36 37 39 41 42 44 45 49 52 54 55 54 52 47 45 47 52 56 54 54 59 58 52 49 50 51 51 55 58 57 56 54 56 59 63 66 68 71 73 67 54
40 41 41 40 38 35 33 32 33 34 37 40 42 43 38 34 33 32 30 28 28 30 31 33 36 40 36 28 31 39 45 45 39 38 39 40 39 40 43 41 41 41 38 35 33 30 29 29 29 29 29 30 31 32 33 33 34 36 39 41 44 46 49 53 54 54 54 54 51 45 43 43 43 46 48 51 54 52 49 50 51 50 48 50 53 54 52 52 55 60 62 63 68 74 78 76 67
42 46 47 44 41 37 33 31 29 27 32 38 39 42 39 32 32 31 30 29 29 31 31 30 33 37 36 31 30 34 41 44 41 38 36 35 33 35 39 40 42 40 37 37 36 32 30 30 29 29 30 31 33 33 34 33 33 37 39 42 46 50 53 55 54 52 52 52 49 45 47 49 47 44 44 46 48 47 48 49 49 48 48 49 51 52 51 52 57 59 59 61 67 73 75 75 71
50 48 45 41 39 35 32 30 28 24 26 34 37 40 37 32 33 33 30 29 30 31 31 31 31 35 37 33 29 30 36 40 38 35 34 36 34 34 36 40 43 39 37 40 39 34 33 34 32 31 32 33 36 37 36 35 35 38 42 45 49 51 52 52 52 50 49 49 47 47 49 53 55 51 45 45 44 41 43 47 47 47 47 50 54 55 52 54 57 56 59 62 66 70 71 72 69
50 46 37 30 29 30 31 28 26 25 23 28 36 39 36 33 35 34 31 30 31 32 32 33 31 33 37 31 26 29 32 32 33 33 33 35 36 36 37 39 42 41 39 38 36 34 34 36 35 34 34 34 38 40 38 37 38 41 44 49 50 50 51 51 50 48 47 47 46 48 50 52 56 54 49 47 42 39 42 46 48 49 49 50 54 55 53 53 54 54 59 61 62 66 70 71 67
39 36 31 25 25 27 31 28 25 24 21 23 31 38 36 35 37 35 33 32 32 32 32 33 32 33 35 27 21 26 29 26 28 33 33 32 34 37 39 38 39 39 39 35 33 34 35 36 36 36 37 37 39 40 40 41 42 44 46 49 50 49 51 51 49 48 47 46 44 47 50 51 53 52 50 49 44 42 44 46 47 49 47 45 48 50 52 55 57 58 61 60 60 65 68 64 50
34 31 28 26 25 27 30 28 25 21 19 21 28 37 36 36 37 34 34 34 32 32 32 33 33 33 33 26 19 22 28 26 26 31 32 31 32 33 35 36 36 35 34 34 35 36 36 37 37 37 38 40 40 40 42 43 45 46 46 47 47 47 49 48 47 47 47 45 43 45 47 48 51 52 51 52 51 49 48 46 45 46 44 43 46 51 56 61 63 63 61 58 59 60 56 42 25
35 30 28 27 25 26 27 24 22 18 18 23 29 36 36 35 37 35 35 34 31 31 31 33 34 33 34 30 24 20 23 26 24 24 26 28 28 27 29 32 34 33 32 33 34 34 36 38 39 38 39 41 41 40 40 40 42 43 43 44 42 40 41 42 43 45 46 43 42 43 45 48 52 54 55 56 55 53 51 48 44 43 44 48 53 57 61 65 64 63 61 57 52 44 32 18 10
33 29 27 28 25 24 24 21 19 18 20 25 31 36 36 34 35 34 35 32 29 30 31 33 33 33 33 34 32 26 21 21 22 20 20 23 24 24 26 30 33 34 33 33 35 35 36 39 40 40 40 41 41 39 37 37 39 38 37 38 35 32 32 34 37 40 43 43 42 43 45 50 54 56 57 56 55 53 50 47 44 42 46 51 54 58 63 64 61 60 55 45 32 20 13 9 9
31 28 25 26 25 23 23 21 19 18 21 26 33 36 36 35 34 33 33 31 29 31 32 33 33 32 32 35 37 34 24 18 20 20 18 20 22 22 24 27 32 34 33 32 35 38 36 37 39 41 39 38 37 37 36 35 35 32 30 29 26 24 24 25 27 33 37 39 40 41 44 50 54 58 58 57 56 54 52 49 47 46 49 51 52 55 60 61 58 52 38 23 13 8 8 9 9
28 26 24 23 23 23 23 21 18 18 22 28 31 33 33 35 35 33 31 31 31 33 34 35 35 32 32 35 37 37 29 18 17 20 20 20 21 21 23 24 28 32 34 33 34 36 34 33 35 35 34 32 32 31 29 28 26 26 23 20 19 19 20 20 19 23 31 36 38 39 43 47 53 57 58 58 57 56 57 56 54 53 53 56 57 57 58 58 50 34 18 9 7 8 9 9 9
27 24 22 21 20 21 21 20 18 17 22 28 29 28 31 33 34 33 31 31 33 34 36 36 35 33 32 36 38 37 30 19 15 17 18 20 21 22 23 24 25 30 35 35 32 31 31 30 28 27 25 24 24 23 21 19 18 18 19 18 18 21 24 23 18 17 24 32 37 40 43 47 52 57 58 57 56 55 57 58 59 59 58 60 61 60 59 51 32 14 8 8 8 9 9 9 9
27 24 22 20 20 21 20 19 18 17 20 27 31 32 32 32 33 32 31 32 32 32 33 34 34 34 34 36 38 38 33 24 16 15 16 18 20 22 22 23 23 25 30 30 27 27 29 28 24 22 20 18 17 19 20 18 16 16 18 21 24 26 28 27 24 21 21 27 33 39 44 48 52 56 57 56 55 54 53 54 58 59 58 60 62 61 52 32 13 7 8 9 8 10 10 10 11
26 23 21 20 20 21 20 19 17 17 18 21 30 37 37 34 32 32 31 30 29 28 28 29 31 33 34 36 38 39 37 31 20 14 14 14 17 19 20 21 19 20 24 25 24 26 28 26 22 20 18 16 16 19 20 19 18 20 22 25 27 29 30 32 33 31 26 25 29 36 43 47 51 54 55 55 55 55 54 54 54 56 59 63 65 56 35 14 7 9 9 9 11 11 12 14 14
25 23 21 20 21 20 19 18 18 18 18 18 23 31 36 37 36 34 31 29 29 29 29 30 31 32 33 34 37 38 36 34 25 15 13 13 14 16 17 17 16 18 22 25 26 26 24 20 18 17 15 15 16 17 19 20 24 27 27 28 27 27 29 31 33 31 25 22 25 32 39 45 49 52 54 55 57 58 60 59 57 59 62 64 59 40 19 9 9 11 11 13 14 13 15 18 18
24 23 21 21 21 21 20 19 18 18 19 18 18 23 32 36 38 37 33 32 33 33 32 33 34 34 35 35 38 38 35 33 27 18 14 12 12 13 13 14 14 15 17 19 21 20 18 15 13 15 16 16 17 17 17 21 26 26 25 24 22 19 19 19 20 21 21 22 26 31 36 42 47 53 54 54 56 59 62 62 61 62 59 53 43 24 12 10 11 16 19 21 20 19 20 22 25
24 22 21 21 20 20 20 20 19 19 18 18 19 29 35 35 37 36 33 35 36 35 35 34 34 35 36 37 38 40 38 36 34 28 22 16 12 11 11 12 13 13 13 14 16 16 14 12 12 15 18 18 18 18 17 19 22 24 21 18 16 14 14 15 17 20 23 28 32 35 38 43 49 54 54 53 55 56 60 61 61 64 54 40 29 16 10 13 15 21 26 29 30 28 29 32 36
24 19 19 21 21 19 20 20 19 19 19 17 19 29 36 35 37 36 34 35 34 34 35 33 34 35 35 36 37 40 40 39 39 39 37 33 25 17 13 11 11 11 12 12 14 15 15 14 13 15 18 20 20 20 18 17 18 20 19 16 16 16 16 17 20 25 31 35 39 42 43 46 53 56 55 56 56 54 57 60 61 62 46 28 21 14 12 17 20 26 31 34 36 38 41 45 46
22 16 17 20 20 19 20 19 19 19 19 19 18 21 27 31 33 33 34 35 34 34 34 33 35 35 34 35 36 38 40 39 39 39 41 43 41 35 27 21 14 11 11 12 13 14 14 14 14 15 17 20 22 23 21 18 16 17 17 17 16 16 16 18 21 26 33 39 43 46 46 50 57 57 55 57 58 56 57 60 61 53 33 19 15 14 16 20 22 29 34 36 40 45 47 47 49
19 14 17 18 18 20 19 18 18 17 18 20 19 19 25 28 25 27 34 36 36 35 33 32 33 33 32 33 35 37 38 39 39 38 38 40 43 43 39 33 26 18 12 11 12 12 13 13 13 15 16 17 20 22 21 18 16 15 16 16 17 17 18 19 22 25 28 32 38 43 47 54 60 58 55 56 56 57 57 57 56 41 21 14 14 16 19 21 26 33 35 36 43 46 45 46 48
19 18 18 16 18 19 18 18 15 16 20 21 18 18 25 26 19 24 37 39 36 34 31 30 29 28 28 30 32 34 37 38 38 39 38 37 39 40 39 39 37 31 22 14 11 11 12 13 13 13 14 15 15 16 17 16 15 15 15 15 16 18 20 21 22 23 23 24 27 33 39 48 56 57 56 55 54 55 54 51 47 30 14 13 15 18 20 23 31 36 34 38 44 44 42 46 49
17 20 20 17 18 18 17 16 14 18 24 21 17 16 21 24 19 19 29 33 33 31 29 29 29 28 28 28 29 30 33 35 36 38 39 39 40 40 40 42 43 41 33 23 15 12 12 12 13 13 13 13 13 13 13 13 14 14 14 15 15 17 20 22 22 22 22 20 19 25 31 38 47 51 51 53 54 54 50 45 38 23 13 15 18 21 23 28 36 37 34 37 40 39 41 45 49
14 15 16 16 16 16 16 14 15 22 24 19 17 16 19 23 20 16 17 20 26 29 27 26 26 26 26 26 27 27 28 31 33 36 38 40 41 42 43 44 45 46 42 35 26 17 14 13 12 13 14 13 13 13 13 12 13 13 14 14 15 17 19 21 22 23 24 22 18 23 30 35 41 42 42 45 49 48 42 37 29 18 15 19 22 26 29 34 37 35 33 35 35 37 41 45 48
17 14 14 17 17 17 19 18 19 23 21 18 16 16 18 20 18 15 15 15 19 25 27 25 23 23 23 22 23 24 26 29 32 34 36 38 40 41 41 41 43 46 47 45 40 30 21 16 14 13 13 14 13 13 13 12 12 13 14 15 15 16 19 21 22 23 25 25 22 22 28 35 39 37 35 37 40 38 32 29 23 16 16 21 26 32 34 36 36 34 35 36 37 39 42 44 46
19 17 16 17 18 21 25 24 23 23 19 17 16 17 19 18 15 14 15 14 14 18 23 25 23 21 20 20 20 22 24 26 28 32 34 37 38 39 38 37 37 39 42 46 48 43 31 23 19 16 13 13 14 14 13 13 13 13 14 15 16 17 18 19 21 23 24 24 23 22 26 34 38 35 32 31 31 28 24 22 19 17 18 23 29 34 36 36 37 38 39 40 40 41 42 43 46
17 18 17 17 16 20 23 23 24 23 18 16 17 19 20 17 15 15 14 14 13 13 16 18 18 16 17 20 21 22 23 24 26 29 32 35 37 38 38 37 35 33 36 39 42 44 39 29 23 20 17 14 13 13 14 13 13 13 14 15 16 17 17 19 21 22 23 22 21 22 25 31 34 32 28 27 24 19 17 18 18 18 21 27 32 35 37 39 40 41 41 41 42 41 42 44 46
15 16 17 17 15 15 17 18 19 18 18 18 18 19 19 16 15 15 13 14 13 13 13 13 14 13 16 22 25 24 24 24 25 26 29 33 36 38 37 38 36 32 33 35 35 38 38 34 28 23 21 19 17 14 13 13 13 14 15 15 16 17 17 18 20 21 22 19 18 21 25 29 33 32 26 22 17 14 16 19 19 20 23 28 32 35 38 40 40 42 42 43 43 42 43 44 46
15 15 16 16 15 14 14 14 14 15 20 21 17 16 16 15 15 14 13 14 13 13 13 13 14 13 16 21 23 23 24 24 24 24 26 31 35 38 37 38 37 34 32 32 30 31 33 36 35 29 24 22 20 17 13 12 12 13 15 16 17 17 17 17 19 20 20 17 15 18 23 28 32 30 22 16 14 14 19 21 22 22 23 27 32 35 38 39 38 41 45 45 44 44 45 45 46
15 15 14 14 14 14 13 13 13 16 21 21 17 15 15 16 16 14 13 14 13 13 13 13 13 14 18 20 20 22 23 23 24 24 25 30 34 37 37 37 36 34 32 28 26 26 29 34 38 39 33 24 18 16 14 12 12 12 14 16 17 17 17 17 18 20 21 16 12 15 20 25 28 25 17 14 13 16 22 25 25 26 26 29 33 36 38 38 36 38 45 48 47 46 47 46 46
15 14 13 13 13 13 13 14 15 17 20 21 18 16 15 14 16 15 13 13 13 13 13 13 12 13 16 17 18 20 22 23 25 24 25 29 33 35 37 36 34 34 33 29 26 28 30 32 36 41 40 32 25 21 19 16 14 14 15 17 19 19 17 16 18 20 20 14 11 14 18 21 26 23 15 14 14 17 24 29 28 29 30 32 35 37 38 38 36 35 40 47 48 48 48 48 48
15 15 14 13 12 12 12 13 14 15 20 22 19 18 16 13 13 14 13 13 13 13 13 13 12 12 13 14 16 18 20 22 24 24 25 28 31 33 34 33 33 34 32 29 29 32 32 32 34 36 39 39 37 33 27 21 18 16 17 19 20 19 16 16 18 20 18 12 10 13 16 18 23 22 15 14 16 19 24 29 30 31 32 33 35 36 36 37 38 37 38 44 48 49 50 51 51
15 15 14 13 11 11 11 12 11 11 19 26 23 19 15 12 12 13 12 13 13 12 12 12 13 13 13 13 14 15 16 19 21 23 25 27 29 31 31 31 31 32 33 32 33 33 31 32 33 34 36 38 39 37 30 22 19 18 18 18 17 16 15 16 18 20 17 10 10 13 15 16 20 20 17 15 17 21 25 29 32 33 34 34 34 34 35 37 40 41 40 43 47 50 53 54 54
14 14 14 13 12 10 11 14 12 9 13 21 22 17 12 10 11 11 12 12 12 12 12 12 12 13 13 13 13 13 13 15 18 21 24 25 27 28 29 30 29 31 33 34 34 33 32 31 31 32 34 35 36 36 29 23 22 20 18 18 18 16 16 17 18 19 15 9 9 14 15 16 18 19 18 16 18 22 26 29 32 35 35 35 34 35 37 39 41 44 46 48 50 54 56 56 57
Wind_Speed
9 9 9 8 9 9 10 9 5 6 5 3 1 1 3 6 6 6 5 7 9 8 8 9 10 9 10 7 6 4 2 10 13 9 13 20 22 21 22 22 22 20 19 19 22 26 27 28 28 28 28 28 27 25 25 24 24 23 22 22 21 19 18 16 14 14 15 15 15 15 14 14 14 14 13 13 12 11 10 9 9 8 8 9 8 7 7 7 7 7 7 7 7 7 7 7 8
8 9 9 8 8 8 8 8 5 5 4 3 1 2 4 6 5 6 5 6 8 7 8 10 9 7 8 6 5 3 5 12 9 5 12 20 21 22 22 21 20 19 19 19 22 27 28 28 27 28 28 27 26 24 24 23 23 22 22 21 20 19 17 15 14 15 15 15 15 14 14 14 14 14 13 13 12 11 10 9 9 8 9 8 8 8 7 8 7 8 8 8 8 8 8 8 8
7 8 8 7 8 8 8 7 5 5 3 2 1 2 3 5 5 6 6 6 6 6 8 9 8 7 7 6 5 4 7 11 7 6 13 18 18 21 23 21 21 20 20 20 24 27 27 27 27 26 26 25 24 23 22 22 22 21 21 21 20 19 17 15 14 15 15 15 15 14 13 13 13 13 13 12 11 10 9 9 9 9 9 8 8 8 8 9 9 8 8 9 9 9 8 8 8
7 7 8 8 8 8 9 7 4 4 2 0 1 4 6 9 8 6 7 7 6 5 5 6 8 8 7 7 6 6 8 9 6 8 12 16 17 18 21 21 21 21 21 22 25 26 26 26 26 25 24 24 22 22 21 22 22 21 21 21 21 19 16 14 14 15 15 15 14 13 12 13 13 12 12 11 10 9 9 9 9 10 9 8 9 9 9 10 10 10 9 9 9 9 9 8 8
7 8 8 9 8 7 8 5 2 3 2 2 2 7 11 11 9 6 7 7 6 3 0 3 5 6 7 8 7 7 7 7 7 10 12 15 18 18 20 21 21 22 21 23 26 26 25 25 24 24 23 22 22 21 21 21 22 21 22 21 21 19 16 14 14 15 15 14 13 11 11 12 12 11 10 9 9 9 9 9 9 9 9 9 10 10 11 11 11 11 10 9 9 9 8 8 8
6 7 7 8 8 6 6 4 2 4 4 4 6 9 10 10 8 6 6 6 5 3 1 2 4 5 7 9 10 8 7 7 8 12 12 14 18 19 20 21 21 22 22 23 26 26 25 24 24 23 22 22 21 21 21 22 22 22 22 21 20 18 15 13 14 15 14 12 11 10 11 11 11 10 9 9 9 9 9 9 9 8 9 10 11 11 11 11 11 11 11 10 9 9 8 8 8
5 6 7 8 7 5 6 4 1 2 4 5 7 9 8 9 8 4 5 4 3 3 2 5 6 7 8 11 11 8 7 9 10 13 14 15 19 20 21 21 22 22 22 23 24 25 25 24 23 22 22 22 21 20 21 22 23 23 22 20 19 17 14 13 14 14 13 11 10 10 10 10 10 9 9 9 8 9 9 9 9 9 10 10 11 11 11 11 11 11 11 10 10 10 9 8 7
6 7 7 7 7 6 5 3 2 4 5 5 7 8 8 8 7 4 2 3 1 2 3 7 8 9 11 12 11 10 11 13 13 14 15 16 19 21 22 22 22 23 22 22 23 24 24 23 22 21 21 21 21 20 21 23 23 23 21 20 18 16 13 12 13 12 11 9 9 9 10 9 8 8 8 8 9 10 10 10 9 9 10 10 11 10 10 11 12 11 11 11 11 12 11 9 8
7 7 7 6 7 7 5 2 2 5 6 7 9 8 9 8 7 6 0 3 2 2 3 5 6 9 13 13 12 12 13 15 15 15 15 17 19 21 22 22 21 21 21 22 22 23 22 22 21 21 21 21 20 20 22 23 23 22 20 18 17 14 12 11 11 11 9 8 8 9 9 8 8 8 8 9 10 10 10 10 10 9 9 10 11 10 10 11 12 11 11 11 11 12 12 11 10
7 7 7 6 6 7 6 2 2 6 8 8 9 9 11 8 8 8 3 3 3 3 6 7 7 8 14 15 14 14 15 16 16 15 17 17 19 20 20 20 20 20 20 21 22 22 21 21 21 21 22 21 20 20 21 22 22 21 19 17 16 13 11 11 10 9 8 8 8 8 8 7 7 8 8 9 10 10 10 11 10 10 9 10 11 10 10 11 11 11 10 11 11 12 12 11 11
7 7 8 6 7 7 8 3 3 8 10 11 11 9 11 10 8 9 5 2 4 6 4 5 6 9 15 16 16 17 17 17 16 16 17 18 19 19 19 19 19 19 19 19 20 21 21 22 21 22 22 21 20 19 20 20 20 19 18 16 15 13 11 10 9 8 7 8 7 7 7 7 7 7 8 9 9 9 10 11 11 10 10 10 9 9 9 10 10 10 9 10 10 10 10 10 10
7 8 9 7 8 8 10 3 6 9 13 15 12 12 14 13 7 5 3 2 4 7 4 2 3 11 16 17 17 19 19 18 18 17 17 18 19 19 19 18 19 19 18 18 19 19 21 21 21 22 22 21 20 18 18 18 18 18 17 15 14 13 11 10 9 8 7 7 7 6 6 6 6 7 8 9 8 8 9 10 10 11 11 10 9 9 9 10 10 9 8 8 8 8 8 9 9
6 7 9 9 9 10 10 1 9 11 15 15 12 13 13 10 5 5 4 3 4 7 6 4 5 12 18 18 18 19 20 20 20 19 18 19 20 20 20 19 19 19 19 18 18 19 19 20 20 21 22 20 20 18 17 17 17 17 16 15 14 13 11 9 8 7 7 7 6 6 6 6 7 7 8 8 7 7 8 8 9 10 11 10 9 9 9 9 8 7 7 7 7 6 7 7 8
5 6 9 10 9 8 9 1 10 14 16 15 13 13 10 7 5 6 5 4 3 4 5 5 7 11 16 16 17 19 21 21 21 20 20 20 21 21 20 20 20 19 19 18 18 18 18 19 20 20 21 20 19 19 18 17 16 15 15 15 13 12 10 9 8 7 7 6 6 5 6 6 7 7 8 7 7 6 6 6 7 9 9 9 8 7 7 7 6 5 5 5 6 6 6 6 7
4 6 8 9 8 7 9 2 11 14 15 15 14 13 11 7 6 6 3 5 5 2 3 4 8 10 10 8 8 14 19 21 21 21 21 22 22 21 21 21 21 20 19 19 19 18 18 18 18 19 19 18 18 18 18 17 15 15 15 14 13 11 10 9 8 7 7 6 6 5 6 6 7 7 7 6 5 5 5 5 5 6 6 7 6 5 4 4 4 4 5 5 6 7 7 7 7
4 5 7 7 6 6 9 2 12 13 13 16 15 13 12 10 7 7 5 3 4 3 1 2 9 11 7 5 7 10 17 19 20 21 21 22 23 23 22 22 22 21 20 19 19 19 18 18 17 17 18 18 18 18 17 16 15 15 14 13 12 11 10 9 8 7 7 6 6 6 6 6 7 7 6 5 4 4 4 4 4 4 4 4 4 4 3 3 3 4 5 6 6 7 8 8 8
4 5 6 5 4 4 7 4 10 11 13 18 16 13 13 12 9 8 7 5 4 5 4 3 9 11 7 7 9 11 15 17 18 19 20 21 22 23 23 23 22 22 21 21 20 19 18 18 17 17 18 18 17 17 16 15 15 15 14 12 12 11 10 9 8 8 7 7 6 6 6 6 6 6 5 4 3 3 3 3 3 2 2 2 2 3 3 2 2 3 4 4 5 6 7 8 9
6 5 6 3 1 3 5 5 6 8 16 18 16 13 11 9 7 8 10 9 7 6 6 5 9 12 11 11 11 13 15 15 16 17 18 19 19 20 21 22 22 22 22 22 21 19 19 18 18 18 18 17 16 16 15 15 14 14 13 12 12 11 10 10 9 8 8 7 7 7 6 5 5 4 4 3 2 2 2 2 2 2 1 1 1 2 2 2 2 2 2 3 4 6 7 8 10
6 6 7 2 1 2 4 6 6 7 16 18 14 12 10 7 6 5 8 7 6 7 7 8 9 12 13 13 12 14 14 14 15 15 15 15 15 16 17 19 21 21 21 21 21 20 19 18 18 18 17 17 16 15 15 14 13 13 12 12 12 11 11 10 10 9 8 8 7 6 5 4 4 3 2 2 2 2 2 2 2 1 1 2 2 2 2 2 1 2 1 2 4 5 7 9 11
7 8 7 2 1 3 5 7 9 7 13 18 14 12 12 9 7 5 5 5 5 8 6 4 7 10 12 13 14 14 14 13 13 14 14 14 13 14 15 16 18 19 20 20 20 20 19 19 18 18 17 16 16 16 15 14 14 13 13 12 12 12 11 11 10 10 9 9 7 6 5 4 3 3 2 2 2 1 2 2 2 2 1 2 2 1 1 2 1 0 1 2 3 4 7 10 11
10 9 6 4 4 7 7 7 10 5 9 18 16 15 15 11 8 6 4 4 3 5 4 4 1 6 10 12 14 15 15 13 13 14 15 14 14 15 15 15 16 17 18 19 20 19 19 19 18 18 17 17 16 16 15 15 14 14 13 12 12 12 12 12 11 10 10 9 7 6 5 4 3 3 3 2 2 2 1 1 1 1 1 1 1 0 1 2 2 2 3 3 4 5 8 10 10
14 11 9 7 6 9 11 12 11 4 6 14 19 18 14 11 9 9 5 5 5 5 4 5 5 2 4 7 12 14 15 13 12 14 15 15 14 15 16 16 17 17 18 18 19 19 18 18 18 18 17 17 17 16 16 15 15 14 13 13 13 13 13 12 11 10 9 8 7 6 5 4 4 3 3 2 2 2 1 2 1 1 1 1 1 1 1 2 3 4 5 6 6 7 10 10 10
16 15 12 8 5 8 14 15 12 3 7 11 17 19 15 13 12 10 6 5 6 6 6 3 3 3 1 3 9 12 14 13 12 13 15 16 15 15 16 16 17 16 16 17 18 18 18 18 18 17 17 17 17 17 17 16 15 15 14 14 14 13 13 12 11 10 9 8 7 6 5 4 4 4 3 3 3 2 1 2 1 1 2 2 1 2 2 2 4 5 6 7 8 8 10 10 11
18 17 14 9 4 7 12 14 13 6 10 11 13 20 20 16 13 11 8 6 6 6 6 6 3 2 1 2 7 10 13 13 11 14 16 15 15 15 15 15 16 15 16 17 18 18 17 17 17 17 17 17 17 17 17 16 16 16 15 15 14 14 12 11 11 9 8 7 6 5 5 4 4 4 4 4 3 2 1 2 1 1 2 3 3 3 3 3 4 6 6 7 9 10 10 11 11
22 19 14 9 8 8 9 12 13 11 11 12 14 21 22 18 14 12 10 7 5 6 7 8 6 2 2 1 7 11 13 13 13 15 17 17 16 16 16 16 16 16 15 16 17 17 17 17 17 17 17 17 17 17 17 17 17 16 16 15 14 13 12 12 10 9 8 6 5 4 4 4 4 5 5 4 3 2 2 1 1 2 3 3 4 4 4 5 6 6 7 8 10 11 11 11 11
23 19 12 12 13 11 10 11 13 13 12 17 19 20 21 20 17 15 13 9 7 7 7 8 8 5 2 1 5 10 14 14 14 15 17 18 18 17 17 17 17 15 15 16 16 17 17 17 17 17 17 17 17 18 18 17 17 16 16 15 14 13 13 12 10 9 7 5 4 4 4 4 5 5 5 4 3 3 2 1 1 3 4 4 4 5 5 6 6 6 6 8 10 10 10 11 11
22 19 17 19 18 18 16 15 15 14 16 21 24 23 22 23 21 19 16 11 9 9 8 7 9 6 3 2 3 9 14 15 15 15 18 19 18 18 18 17 17 16 16 16 16 17 18 17 17 17 17 18 18 18 17 17 16 15 16 15 14 14 13 12 10 9 7 6 5 5 4 4 5 5 5 4 4 3 2 3 3 4 5 5 5 6 6 6 6 6 7 8 9 10 10 11 12
22 20 21 22 23 24 22 19 17 16 18 21 23 24 24 26 24 21 17 13 11 11 10 8 9 9 5 4 4 9 14 15 15 16 18 18 17 17 17 17 17 17 16 16 16 17 17 17 18 18 18 18 18 18 17 16 15 15 16 15 15 14 13 12 10 9 7 7 6 5 4 4 4 4 4 4 4 4 3 4 5 6 6 5 5 6 6 5 5 6 8 8 9 10 11 12 14
21 19 23 25 25 29 28 23 19 19 20 20 20 22 27 32 27 20 18 15 12 12 13 11 11 11 8 7 7 9 14 17 18 18 18 17 16 16 16 16 17 17 16 16 17 17 17 17 18 17 17 18 18 17 16 15 16 16 15 15 15 14 13 12 10 9 8 7 7 5 5 5 5 5 4 4 5 5 4 4 5 7 7 6 6 6 6 6 7 8 8 9 9 11 12 13 15
22 20 22 23 26 32 30 26 23 22 22 20 22 25 32 33 25 20 20 18 16 15 16 15 14 14 11 9 8 10 14 17 19 19 17 17 17 16 16 16 17 17 16 17 17 17 17 18 18 18 17 17 17 17 16 16 16 16 15 15 15 14 12 12 11 10 9 8 7 6 6 6 6 6 5 5 6 5 4 4 5 6 7 6 5 6 6 7 8 9 9 9 10 11 13 15 16
20 21 22 22 26 31 28 25 26 24 22 21 25 30 34 32 26 24 23 22 20 18 18 19 17 16 13 9 9 10 13 15 18 19 18 18 18 17 17 17 17 18 18 18 17 18 18 18 18 18 17 17 17 17 17 17 17 16 15 15 14 13 12 12 11 10 10 9 7 6 6 7 7 7 6 6 6 6 5 5 5 6 7 6 5 5 6 7 8 9 9 10 11 13 14 16 17
21 21 24 24 26 31 27 23 24 24 22 21 27 33 35 34 30 27 26 24 22 20 19 20 20 18 14 10 9 10 12 14 18 20 20 19 19 19 18 18 18 19 19 18 17 18 19 19 19 17 17 17 17 17 16 17 17 16 16 15 14 13 13 12 11 11 10 9 8 7 7 8 7 7 7 7 7 6 6 5 5 6 7 5 5 5 6 7 8 9 11 12 13 14 15 15 15
26 25 27 26 26 31 28 19 18 20 20 22 30 35 36 35 32 29 27 24 21 21 20 20 21 18 16 11 8 11 13 16 19 20 21 21 20 20 19 18 19 19 19 18 18 18 18 19 19 18 17 17 17 16 17 17 16 16 16 14 13 12 12 12 11 11 11 10 9 9 9 8 8 7 7 7 7 7 6 5 5 6 7 6 5 6 6 8 9 10 11 12 13 13 14 13 13
31 28 28 29 27 29 29 21 15 16 18 25 31 36 37 35 33 30 28 24 23 23 21 21 21 19 18 13 9 10 13 16 18 20 20 20 21 21 20 19 19 20 20 20 19 18 18 18 19 18 18 17 17 17 17 17 16 16 15 14 13 12 12 12 12 12 12 12 11 11 10 9 8 8 8 8 8 8 6 5 5 6 7 7 7 7 8 8 9 10 11 11 11 11 12 12 12
32 29 27 30 29 29 30 27 18 14 16 25 32 37 39 38 36 32 27 25 25 24 22 22 22 20 20 16 11 10 13 15 16 18 19 19 21 22 22 21 20 21 21 21 21 20 19 19 19 19 19 18 18 18 18 17 17 16 14 13 13 12 12 12 12 13 13 13 12 12 11 10 9 9 9 9 9 8 6 5 5 6 7 8 8 8 8 8 9 10 9 9 8 9 10 12 12
30 27 26 28 29 31 31 27 21 14 16 26 34 37 38 39 38 33 28 27 27 24 23 25 24 22 22 18 12 10 13 14 14 18 19 20 21 22 23 22 21 21 22 22 22 21 21 20 20 20 20 20 19 19 18 17 16 16 14 12 10 9 10 11 11 12 14 14 13 12 11 10 11 11 10 10 9 8 6 6 6 7 8 8 8 8 8 9 9 9 7 6 7 9 10 11 12
31 28 27 28 30 32 30 28 23 14 15 25 34 36 38 40 39 35 30 28 28 26 27 29 27 24 24 20 14 11 12 12 14 18 20 20 21 23 24 24 24 24 24 24 23 22 22 21 21 21 20 20 20 19 17 15 14 13 11 8 7 8 9 10 10 11 12 13 13 12 12 11 12 11 11 10 10 8 7 7 7 8 9 9 8 7 7 9 8 5 5 6 7 9 9 10 11
34 32 31 31 32 33 31 28 22 14 15 23 33 39 40 41 40 36 32 31 29 26 26 27 26 25 25 22 17 12 11 13 17 20 21 22 23 24 25 25 25 25 25 24 23 22 22 22 22 22 21 21 20 19 17 15 12 11 9 7 7 9 11 11 10 11 12 13 13 13 13 13 12 12 12 11 10 8 8 8 8 9 9 9 8 7 7 6 4 3 5 7 8 8 9 11 12
35 35 34 34 34 33 32 29 22 17 17 19 26 37 43 43 41 37 34 33 29 23 21 20 20 21 23 23 19 14 14 16 20 22 22 23 24 24 25 25 25 24 24 24 23 24 24 24 23 23 23 21 20 19 18 16 13 11 11 10 10 11 12 12 12 13 14 14 14 14 15 15 14 13 12 11 9 9 8 8 9 9 9 8 7 7 5 3 1 3 5 6 7 8 9 10 12
37 37 35 37 38 32 30 28 21 17 16 14 17 27 37 39 38 38 36 33 29 24 21 21 21 20 18 18 16 14 17 18 20 24 24 23 24 25 26 25 25 25 26 27 26 26 26 25 25 24 23 22 21 19 18 17 15 14 13 13 14 14 13 14 15 16 16 15 15 15 15 16 15 14 12 10 9 10 9 9 9 8 8 7 6 5 3 1 1 3 5 6 7 8 8 10 12
39 40 39 41 40 36 34 31 25 22 20 16 16 20 31 35 36 39 37 34 33 30 27 28 28 26 21 19 17 15 17 18 18 21 25 25 25 26 25 24 25 26 27 27 27 25 24 24 24 24 25 24 22 21 19 19 18 18 17 16 16 15 13 12 12 12 12 12 13 13 14 15 14 13 12 11 10 11 10 10 9 8 7 6 5 4 3 2 2 3 5 6 7 7 8 9 10
40 43 45 44 41 38 36 33 28 26 25 19 14 12 21 31 37 40 38 38 38 35 33 32 30 29 28 26 24 20 18 18 16 16 19 22 24 25 25 25 26 27 26 25 25 24 24 24 24 25 26 26 24 23 22 21 21 20 19 17 15 13 11 9 7 7 8 9 11 12 14 14 14 14 12 11 11 11 10 10 9 8 7 5 4 4 4 3 2 3 5 6 7 7 7 8 10
39 45 46 43 39 38 38 35 27 22 24 22 15 10 12 22 34 40 41 41 39 37 37 35 32 31 30 29 27 25 22 21 20 18 17 17 19 22 24 25 27 27 27 25 25 26 26 26 26 27 27 26 25 25 24 23 22 22 20 18 16 14 12 9 7 7 8 10 12 14 14 15 16 14 13 12 12 11 10 11 10 8 6 5 5 6 5 4 2 2 5 5 6 6 7 8 10
42 46 43 40 37 36 38 35 29 28 33 32 26 20 16 19 28 36 42 44 42 42 39 37 36 34 31 30 28 27 25 23 22 22 21 19 19 19 20 21 23 25 26 27 27 27 28 28 27 27 27 27 27 26 26 24 22 21 21 19 18 15 12 10 10 10 11 13 14 15 16 17 17 15 14 13 12 12 11 11 10 7 5 5 6 6 5 3 1 1 3 4 5 6 8 10 11
46 44 39 39 36 34 35 30 27 31 31 32 37 31 17 18 26 31 40 48 48 46 43 38 37 34 32 32 30 29 28 26 24 22 22 21 20 18 17 16 16 19 23 26 27 27 27 27 27 27 27 27 27 27 27 26 23 21 22 22 19 16 13 11 13 14 15 17 17 17 17 17 16 15 14 14 13 12 10 10 9 6 5 6 7 6 5 4 2 1 2 3 3 5 10 12 12
46 39 36 37 33 31 31 25 27 29 22 26 40 35 17 15 28 31 39 51 53 48 43 39 37 33 32 32 31 30 29 29 27 25 22 20 19 16 15 15 14 16 20 23 26 27 28 28 28 28 28 27 27 27 27 26 25 24 23 22 19 17 15 14 15 16 17 18 18 18 18 16 16 15 14 14 13 12 11 9 8 7 6 6 7 6 5 5 4 2 2 1 1 6 12 13 13
41 37 35 35 34 32 28 25 26 20 16 27 39 39 23 13 26 34 36 44 50 49 45 41 39 36 34 34 32 31 31 30 29 27 26 23 20 18 16 16 15 15 18 22 25 28 29 30 30 29 28 28 27 27 27 26 26 26 24 22 20 18 17 17 17 17 17 18 17 16 16 15 15 15 15 15 15 13 11 10 9 8 7 6 6 6 6 6 5 3 2 1 2 7 12 14 14
34 36 36 31 30 31 27 27 24 11 11 25 34 37 29 18 26 35 32 34 40 46 47 42 38 36 34 34 34 33 32 31 29 28 27 26 25 24 22 21 19 18 19 22 25 28 30 31 31 31 30 29 29 29 28 27 27 26 25 23 21 20 19 19 18 17 17 18 17 16 15 15 15 16 16 16 14 13 12 10 10 9 7 6 6 5 5 5 3 3 2 2 4 8 11 13 14
34 37 35 23 14 15 16 14 12 9 12 20 25 27 26 28 36 38 33 32 35 41 45 41 36 34 31 31 32 34 33 32 31 30 29 29 28 27 26 24 23 24 23 23 23 26 30 31 32 33 32 32 31 30 30 29 28 27 26 24 23 21 21 21 20 18 18 18 17 17 17 16 15 15 14 13 12 13 12 11 11 9 8 7 6 5 4 3 1 1 2 3 4 7 10 12 14
38 41 38 25 9 4 8 6 4 10 15 18 24 23 20 29 40 39 36 34 32 35 39 38 36 35 34 33 32 33 33 31 31 31 31 31 29 28 27 26 25 25 25 24 24 25 28 30 32 33 34 33 33 32 31 30 29 28 27 26 25 23 23 23 22 20 19 19 18 18 18 17 16 15 12 10 11 13 13 12 11 11 11 10 8 5 4 3 2 1 0 1 3 6 9 11 13
39 41 39 33 23 11 5 5 4 6 10 13 18 16 13 23 35 38 35 31 28 30 32 33 34 34 35 37 37 35 33 31 30 32 33 32 31 30 28 27 26 25 25 25 24 24 26 28 31 33 34 34 34 34 33 32 31 29 28 28 27 25 24 24 24 23 21 20 19 19 19 18 17 15 12 11 13 14 14 13 13 13 12 11 9 7 6 5 3 2 1 1 3 5 8 10 12
35 37 37 40 42 30 12 9 11 8 8 10 16 17 18 25 33 35 33 30 27 26 29 32 33 33 35 41 44 40 36 33 31 31 32 33 33 32 31 29 28 26 25 25 25 25 26 26 28 30 32 34 34 35 35 33 32 31 31 30 28 26 25 25 25 24 23 21 20 19 19 19 18 16 14 14 15 15 15 14 14 14 14 12 10 9 7 6 4 3 2 2 3 5 7 9 11
29 33 42 43 43 39 24 17 19 14 7 8 15 20 25 27 28 29 29 30 29 25 27 31 32 32 35 41 44 42 39 37 33 30 30 32 34 34 32 31 29 28 27 26 26 26 26 26 25 26 28 32 33 34 34 34 34 34 33 32 31 29 27 27 26 25 23 22 21 20 19 19 19 17 16 16 17 17 16 15 15 15 15 14 12 10 9 8 7 5 4 2 3 4 6 8 11
30 32 41 40 34 36 31 18 14 12 6 6 12 18 22 21 20 24 27 28 30 28 26 27 29 33 37 40 41 41 40 37 34 31 30 31 34 35 33 31 29 29 28 27 26 26 26 25 24 24 25 27 29 30 32 33 34 35 35 34 33 31 28 27 27 26 24 23 23 21 20 20 19 18 18 18 19 19 17 16 16 16 16 15 13 12 11 11 10 8 6 4 4 5 6 8 10
37 35 34 31 25 28 31 19 8 8 6 5 7 13 23 28 23 21 24 26 28 28 26 25 25 30 37 38 38 40 41 39 37 34 31 31 33 34 33 30 28 28 28 27 26 26 25 24 23 23 23 23 24 26 28 30 32 34 34 35 34 32 30 29 28 27 26 25 24 22 21 21 20 18 19 20 21 20 19 18 18 17 17 15 14 13 13 13 12 11 9 8 8 7 8 8 9
38 39 37 35 32 31 34 27 13 7 4 6 5 6 21 36 33 26 23 23 24 25 25 25 24 27 31 32 32 33 35 38 38 35 32 30 30 32 31 28 27 26 26 27 27 27 26 25 24 23 23 23 23 24 25 27 29 31 33 34 34 33 31 30 30 29 27 25 24 23 22 21 21 20 20 21 22 22 21 20 19 18 17 16 15 15 15 14 13 13 13 13 12 11 10 10 10
41 42 42 41 37 33 32 31 29 20 7 3 3 6 23 36 34 31 29 24 24 25 24 25 25 26 26 26 25 25 27 32 35 34 32 28 28 29 29 28 26 24 25 27 28 28 27 27 26 25 24 24 24 24 25 27 28 29 31 32 33 32 31 31 31 30 28 26 25 24 23 22 22 22 22 23 23 23 23 21 20 19 18 18 17 17 16 16 15 14 15 16 15 14 13 12 11
47 45 46 44 38 31 19 16 29 34 22 13 8 9 26 34 29 29 30 27 28 29 28 28 28 26 25 24 23 22 24 28 31 32 30 26 25 26 27 27 27 27 27 28 28 28 28 28 27 26 26 26 25 25 26 27 28 29 30 31 31 31 30 30 31 31 29 27 26 25 24 24 24 23 23 24 24 25 24 23 22 20 19 18 18 18 18 17 16 15 15 16 17 17 16 15 14
Wind_Direction
48 57 55 54 51 44 35 28 22 16 3 359 39 127 136 149 137 129 135 139 143 146 152 162 170 178 183 180 169 179 215 171 158 143 151 152 148 148 150 149 147 147 144 142 144 143 140 138 139 142 145 149 150 148 147 148 150 152 150 146 141 136 133 124 113 107 105 104 103 101 101 100 98 96 95 93 90 88 85 84 82 77 75 74 74 75 78 81 77 73 70 70 70 67 63 56 55
41 50 51 47 40 31 24 17 4 359 343 342 78 105 127 150 137 131 135 129 137 147 148 153 167 173 169 175 175 197 189 169 160 139 154 155 152 152 155 153 149 148 145 146 147 145 141 140 141 143 146 149 150 149 147 149 152 153 151 148 144 140 135 123 111 107 107 107 104 103 102 98 96 94 92 90 86 84 84 84 82 76 73 72 74 76 78 78 76 74 72 71 70 71 71 66 66
29 41 44 36 24 16 10 9 2 1 344 307 118 116 121 138 141 141 130 114 123 148 154 150 161 170 169 179 175 179 179 171 161 154 158 155 154 155 156 154 150 149 147 146 148 146 143 141 142 145 148 149 150 149 148 150 153 154 153 150 146 142 135 122 111 109 109 108 106 104 101 96 94 92 90 85 82 82 82 82 76 71 69 72 76 78 81 80 78 78 76 72 70 71 71 70 70
15 22 28 21 9 5 2 6 13 12 15 265 142 131 132 137 147 144 117 99 100 134 167 166 167 177 181 182 175 171 180 185 173 161 164 156 154 155 153 152 149 149 148 146 149 148 145 144 143 145 148 150 151 150 151 152 154 155 153 151 147 143 134 121 114 111 110 108 106 103 100 95 92 89 85 79 76 76 77 76 70 68 71 79 86 87 89 87 84 83 82 78 75 74 71 71 71
12 14 19 12 360 358 360 4 355 313 284 226 171 143 141 144 152 146 119 101 97 99 169 206 190 191 182 182 186 185 194 213 185 158 168 162 155 157 152 151 149 149 149 148 150 150 149 147 145 147 149 151 152 151 153 154 155 156 153 151 148 143 134 122 114 112 111 109 105 103 99 93 88 82 77 72 70 69 73 73 70 71 76 84 91 96 96 93 89 87 87 86 83 80 76 73 74
10 10 12 6 1 0 359 10 335 274 240 211 175 155 147 147 156 143 115 108 115 102 41 249 254 234 186 182 196 207 208 202 176 153 167 170 156 156 155 153 151 151 150 149 152 152 151 151 150 151 152 153 153 153 154 156 157 156 153 150 148 143 135 123 116 114 112 109 106 103 96 88 81 74 71 68 68 69 71 71 73 78 83 88 96 100 99 94 90 91 91 90 87 83 79 73 76
4 7 8 357 7 18 14 33 34 221 187 178 164 164 157 152 164 144 90 85 112 139 207 236 248 241 202 189 199 202 176 157 154 150 163 171 158 156 157 156 153 151 152 151 152 153 154 155 154 155 156 155 153 154 156 158 158 155 153 150 148 144 135 125 119 117 113 111 108 100 90 83 75 70 68 65 68 73 74 72 78 91 93 96 101 100 97 93 92 95 93 87 82 80 79 74 73
354 3 5 357 23 44 40 68 143 155 155 161 160 173 175 160 173 175 74 34 55 137 214 227 227 229 209 190 187 172 151 140 142 151 161 167 161 158 159 158 156 153 153 153 153 155 157 156 156 159 157 155 154 156 159 159 158 155 152 150 150 146 138 129 125 121 117 115 106 95 88 82 76 71 66 65 74 79 77 74 80 95 98 103 107 103 96 93 95 97 92 84 79 76 75 72 69
347 353 351 0 35 47 57 102 172 171 169 164 159 175 193 180 180 192 17 8 9 98 154 187 197 208 197 179 172 160 147 142 144 154 160 162 160 159 159 159 158 157 156 155 156 156 158 158 159 161 158 157 157 159 160 159 158 156 152 151 152 149 143 136 130 126 123 117 102 95 91 87 80 72 70 74 80 80 76 74 80 91 97 106 109 105 97 95 98 98 92 86 80 74 71 68 66
342 338 332 351 26 36 50 76 199 195 178 165 167 177 200 200 185 197 255 349 26 76 121 131 146 185 187 170 164 156 144 145 149 156 156 156 157 157 158 159 160 162 161 158 158 158 159 161 163 162 159 159 160 160 158 158 159 158 155 155 155 154 151 145 137 133 128 116 103 99 95 88 81 76 78 82 82 79 75 75 79 87 95 105 109 104 99 98 100 99 95 87 79 75 71 68 66
335 326 323 349 14 13 12 16 188 194 174 170 186 186 204 218 199 200 235 314 44 60 97 118 143 186 185 168 161 151 143 148 150 154 155 154 156 158 159 159 161 164 165 162 161 161 162 164 166 164 162 162 162 161 158 159 162 162 161 161 160 161 161 153 142 138 129 114 108 105 98 91 89 88 89 88 84 78 75 75 76 82 90 102 110 105 103 104 103 99 92 83 75 71 68 66 64
328 322 319 344 3 351 352 355 182 192 177 176 188 182 200 221 224 232 263 295 18 43 42 42 136 178 177 165 159 148 144 150 150 154 156 156 157 159 162 161 160 164 166 165 164 164 165 166 165 164 164 163 161 161 160 161 164 165 167 166 165 167 166 157 145 140 128 117 117 113 107 104 104 103 99 91 84 76 74 77 78 80 84 95 108 108 107 108 105 99 90 80 72 66 63 58 56
322 324 315 330 349 347 355 310 190 197 186 180 186 181 198 223 251 289 294 291 350 27 27 40 114 166 171 163 159 149 147 150 150 155 157 158 160 159 162 162 161 164 167 167 168 166 167 167 164 164 165 164 161 161 164 165 166 168 170 169 168 169 165 158 149 143 131 126 127 121 119 118 119 116 104 94 86 78 76 81 83 83 85 92 103 108 108 104 100 94 86 80 73 68 62 53 49
323 326 313 323 347 357 0 314 191 198 194 181 183 189 205 235 268 281 282 312 339 26 32 67 121 162 171 166 162 154 150 152 152 157 159 159 160 160 161 162 162 163 166 168 169 168 167 166 164 165 165 166 165 166 169 169 169 170 171 170 169 166 163 162 154 145 138 136 138 135 133 131 131 123 107 97 93 88 83 85 86 87 90 93 98 104 104 101 94 83 72 67 67 67 59 49 44
323 322 314 324 352 5 0 342 185 196 200 183 181 192 202 226 266 268 265 320 325 9 47 91 148 174 184 189 188 167 157 154 154 158 161 162 162 162 161 162 163 163 165 167 169 169 168 167 165 165 166 169 170 171 173 172 171 172 172 168 166 165 165 165 155 149 147 149 150 149 147 140 135 125 112 105 102 96 87 83 86 89 92 96 99 100 100 101 95 78 61 53 56 56 49 43 38
303 309 310 327 354 8 11 39 183 193 197 186 183 186 192 203 233 249 246 281 309 303 327 130 168 186 202 230 239 195 168 159 157 160 163 165 165 164 163 164 164 164 166 167 168 168 169 169 167 167 170 172 173 173 174 174 175 174 172 167 166 170 168 164 159 158 157 158 162 162 158 148 142 134 126 123 109 90 82 80 87 94 94 100 108 109 106 99 87 68 56 50 49 41 35 35 31
269 285 300 321 352 9 28 92 177 189 188 184 186 189 193 198 202 212 226 223 245 279 265 189 178 185 184 194 222 207 181 171 165 166 167 168 170 168 167 166 167 167 167 167 168 169 169 169 169 170 172 174 174 174 174 175 175 173 170 168 170 170 168 166 165 165 163 165 169 170 168 159 154 150 144 144 124 94 94 95 97 107 103 105 120 124 127 120 94 65 54 46 42 35 27 24 19
252 280 299 298 17 33 66 121 158 187 188 183 191 201 202 211 216 199 209 218 227 259 249 216 189 186 183 183 207 207 190 183 178 175 175 174 174 173 171 169 169 169 168 168 168 168 168 169 170 171 172 173 171 170 172 172 171 170 168 169 171 170 169 170 171 170 169 172 176 176 176 169 162 160 154 149 146 132 119 109 105 118 149 161 153 158 173 163 134 103 74 39 35 31 25 15 6
258 287 282 229 142 73 115 156 148 170 191 190 201 217 220 238 274 230 218 230 243 268 257 236 209 194 197 190 194 203 198 194 191 187 183 182 181 179 177 171 170 171 171 170 168 167 168 170 170 171 172 170 168 169 170 169 168 168 169 171 170 170 172 175 175 174 177 181 182 181 179 175 163 156 160 162 169 160 127 113 108 118 185 200 201 229 229 209 150 128 97 34 28 22 16 9 3
250 262 248 185 149 145 136 170 156 153 195 202 213 220 222 238 267 256 239 250 271 295 288 258 229 210 215 207 195 199 203 201 198 196 189 186 186 185 182 175 172 172 171 171 170 169 169 171 171 170 170 168 169 170 169 167 168 170 172 172 171 173 176 178 179 180 186 187 184 182 179 174 157 149 152 159 186 192 147 136 125 129 182 202 212 230 249 255 274 25 347 10 12 6 5 4 4
237 227 192 146 186 170 143 165 169 175 208 212 220 216 218 232 255 256 258 282 310 330 358 56 340 233 234 227 207 198 203 204 199 195 187 185 186 185 182 176 173 173 174 174 173 173 171 171 171 170 168 169 171 170 170 170 171 172 173 173 174 177 178 180 182 184 186 184 181 180 178 170 151 156 164 159 199 210 177 191 162 144 227 219 211 312 308 276 305 351 347 356 358 356 357 359 0
227 195 160 154 190 181 160 159 168 199 238 221 221 216 221 231 247 257 270 338 351 352 3 48 38 303 247 240 220 202 200 204 198 188 180 180 181 181 178 174 175 175 177 177 176 176 174 172 171 170 169 168 169 170 172 173 173 173 174 176 178 180 181 181 183 184 182 179 177 176 175 171 163 181 191 182 222 231 224 245 215 174 258 217 227 319 314 289 319 356 6 5 354 346 348 351 350
221 185 166 154 169 192 175 167 166 207 279 250 230 220 226 238 248 262 276 333 324 316 323 325 19 29 47 235 225 208 201 201 194 183 176 174 175 177 177 174 175 177 177 177 178 178 177 175 172 171 172 170 170 172 175 175 175 175 177 180 182 185 185 184 185 184 183 181 178 179 181 179 183 204 214 216 235 239 236 254 259 262 260 255 279 296 306 315 338 353 2 1 350 341 342 344 341
224 195 179 170 201 210 183 179 178 210 274 280 252 226 223 237 249 258 267 295 296 296 291 269 284 15 21 220 217 213 206 200 187 179 177 174 173 177 178 176 175 176 177 176 177 178 176 176 174 173 174 173 174 176 177 178 179 180 181 183 185 188 187 186 188 188 188 188 185 188 192 193 200 211 220 228 239 237 244 269 319 293 271 282 294 294 296 315 337 343 346 351 349 343 342 341 337
225 203 185 199 237 231 201 202 196 203 252 271 256 236 232 242 253 258 267 278 270 275 271 261 260 278 336 219 206 211 206 200 189 182 181 177 178 181 181 179 177 176 177 177 176 175 176 177 176 176 176 177 179 180 180 181 182 184 185 187 188 188 187 188 189 191 194 193 195 203 202 203 211 217 224 228 231 234 245 278 324 292 283 289 295 297 302 314 326 334 339 342 342 340 339 336 333
226 216 219 243 258 263 250 236 217 204 237 261 257 252 248 244 245 248 252 258 245 247 257 256 257 261 294 233 206 211 207 203 196 189 187 183 183 184 183 182 179 176 176 177 176 174 177 178 178 179 179 180 182 183 184 184 184 186 189 191 191 191 192 191 190 194 197 197 208 218 208 208 219 223 227 228 226 226 234 265 291 286 289 286 284 294 306 313 319 331 334 331 331 330 332 330 329
232 239 254 263 273 284 276 262 249 236 243 255 261 263 251 238 237 238 242 242 229 231 244 252 257 256 256 263 225 210 206 206 203 196 194 192 188 186 186 185 180 178 178 177 176 177 180 179 179 180 181 182 183 184 186 187 186 188 191 194 192 193 196 193 191 196 197 200 215 223 211 213 225 227 228 233 235 234 247 271 281 280 282 281 281 287 295 302 311 325 324 317 319 319 323 325 325
237 251 265 268 277 284 279 269 265 266 250 235 252 263 243 233 237 240 247 246 230 229 237 249 256 248 239 253 236 212 206 206 207 205 204 200 192 188 187 185 182 182 181 177 178 181 183 181 181 182 183 184 183 184 186 187 189 191 194 194 194 197 198 196 197 200 198 202 213 215 208 213 229 236 231 234 245 250 260 274 281 279 282 289 291 290 290 297 308 316 312 306 309 313 318 323 323
240 255 269 271 276 277 271 268 266 274 263 227 239 254 231 228 236 239 244 244 238 236 233 238 247 243 239 240 228 215 209 207 208 209 209 207 200 193 188 184 187 187 181 180 184 186 185 185 186 187 187 186 184 186 186 186 191 196 198 197 199 201 202 202 203 204 203 205 209 207 211 220 233 241 237 239 247 249 255 267 275 277 282 291 297 299 301 309 313 310 305 303 307 312 316 321 323
238 245 259 268 272 267 260 264 264 267 266 239 236 237 223 226 235 236 235 233 236 239 230 227 235 238 237 238 226 214 212 211 211 210 208 206 203 198 190 187 189 189 186 187 188 187 187 189 191 191 189 187 186 188 187 188 192 198 200 201 204 205 205 208 208 209 209 209 210 210 217 223 231 240 241 242 245 246 253 265 273 275 280 289 293 295 301 308 308 303 302 304 308 311 315 320 323
230 238 246 252 262 258 250 257 260 260 261 248 238 232 223 224 231 232 229 229 237 243 234 222 227 233 233 234 225 217 218 218 215 211 209 205 202 199 193 192 192 190 191 192 191 189 189 192 194 194 191 188 188 189 189 190 193 198 202 204 207 207 209 212 211 212 213 214 213 213 221 223 226 235 236 240 248 256 265 274 280 280 285 295 298 297 302 306 303 302 305 308 311 314 317 320 322
230 245 245 240 251 255 251 249 250 260 265 247 233 228 224 225 230 230 226 230 237 243 237 222 223 229 228 229 223 219 220 220 217 212 210 206 202 199 195 195 195 193 193 193 193 194 194 194 196 196 193 191 191 190 190 193 195 198 202 206 209 209 212 215 214 214 214 216 215 216 227 228 226 231 236 246 259 269 277 282 285 286 291 303 309 309 314 314 311 311 311 313 316 317 318 320 324
234 245 248 240 245 253 255 245 243 268 269 240 225 223 223 224 228 227 226 231 234 236 235 223 223 227 227 228 220 219 221 220 217 213 210 206 201 198 195 196 197 197 196 194 196 197 197 196 196 196 194 194 194 194 194 196 198 199 202 207 211 212 214 217 217 216 215 216 217 220 230 234 231 234 241 253 264 270 278 282 282 283 290 306 315 317 318 316 313 311 312 314 317 317 320 326 333
233 238 244 242 243 249 253 248 255 284 265 234 223 222 226 230 228 225 226 230 230 232 232 223 223 227 228 228 223 223 228 226 218 212 208 204 201 197 195 196 197 200 198 196 198 200 201 201 199 196 195 195 197 199 200 201 203 203 204 208 213 216 215 218 220 219 217 217 218 221 227 231 233 237 245 255 264 270 278 279 276 278 288 304 312 314 314 311 308 308 310 313 318 324 330 338 343
233 234 239 241 243 247 249 250 263 295 271 234 221 221 228 234 232 229 229 229 230 233 232 224 224 229 229 229 232 234 234 231 221 212 209 205 201 198 196 196 196 198 199 198 200 201 203 205 203 200 197 196 197 201 205 206 207 208 210 212 216 218 218 220 220 219 220 219 220 222 223 227 231 237 245 257 266 273 280 276 272 278 290 303 306 305 303 302 304 307 313 319 331 344 348 353 354
237 240 244 244 247 247 246 250 259 290 280 238 225 226 228 230 229 231 233 229 230 233 229 223 223 228 231 232 236 238 237 232 218 210 209 207 202 199 198 197 195 197 199 201 202 202 202 202 202 200 197 197 199 202 206 208 210 212 216 220 223 226 228 227 221 218 219 221 223 225 226 230 234 239 247 258 266 272 275 272 272 280 289 299 303 301 297 299 305 310 322 340 356 5 5 6 7
241 246 248 247 250 248 244 250 256 274 279 246 235 234 232 228 227 232 234 227 226 228 225 223 223 228 231 233 236 238 239 228 212 209 208 207 205 202 200 199 198 198 199 203 203 203 203 201 198 196 196 199 202 203 206 209 209 212 216 225 235 240 243 240 229 220 219 223 226 227 230 234 237 240 246 254 261 268 272 270 269 275 283 292 298 297 296 299 307 322 352 10 16 18 15 14 15
241 246 248 249 250 246 243 249 252 252 270 255 235 228 228 229 228 230 231 226 225 227 227 225 226 231 232 235 240 237 232 219 210 209 206 205 206 205 203 201 201 201 200 202 203 202 202 202 198 195 198 201 204 206 207 209 207 209 216 226 235 238 244 247 242 231 226 228 230 232 235 236 239 242 246 252 261 270 274 272 268 271 278 287 290 289 293 298 314 0 22 27 27 24 20 18 19
239 243 249 251 246 245 247 249 247 249 268 264 235 223 223 227 229 229 229 230 232 234 238 237 232 235 235 236 240 231 221 218 213 209 206 204 203 206 205 202 202 202 202 202 203 204 203 201 198 197 200 203 206 208 208 209 210 214 221 226 229 231 238 243 244 238 233 229 230 232 235 239 243 246 251 255 262 271 272 270 268 270 276 281 282 282 284 289 348 35 38 34 31 25 21 21 22
236 238 246 247 242 247 251 246 246 255 266 270 256 238 228 227 227 227 231 236 238 238 241 242 240 245 249 248 243 227 219 223 220 212 209 206 203 205 206 203 201 201 204 205 204 205 202 199 197 199 201 204 208 208 208 211 215 220 223 224 227 229 231 235 237 238 236 232 230 232 235 241 247 252 257 259 261 265 266 266 266 270 277 276 274 273 253 207 65 59 51 35 29 25 19 20 23
233 234 240 242 241 246 250 249 253 263 266 268 277 256 233 229 224 223 229 233 232 233 234 234 236 241 250 252 246 231 219 224 226 217 214 212 208 207 205 202 202 203 205 206 205 206 202 198 198 202 205 207 209 209 210 213 216 221 224 225 228 231 233 238 243 247 246 238 232 233 236 242 248 252 258 259 256 258 261 262 263 271 277 269 260 236 201 172 116 76 53 36 27 23 16 18 23
234 231 232 237 241 245 249 255 262 271 272 264 270 254 226 226 226 225 226 226 225 226 230 233 234 235 238 241 240 234 222 220 225 222 220 221 219 216 211 205 205 206 207 208 207 206 203 200 201 206 210 212 213 213 214 215 217 221 227 232 239 246 250 255 266 269 259 248 239 236 238 241 243 248 255 256 254 254 256 259 262 272 271 254 229 197 183 173 138 75 49 36 25 25 24 26 27
236 230 229 235 243 247 250 256 262 270 269 263 263 258 234 222 223 227 226 224 225 225 228 233 234 234 236 238 237 234 228 220 218 220 222 224 226 225 221 216 213 211 209 208 208 207 205 203 205 209 212 214 217 218 219 219 219 222 229 237 244 250 254 255 257 254 247 245 241 237 236 236 238 244 250 252 253 252 252 257 264 270 261 231 201 186 181 177 150 63 46 32 26 39 41 34 28
235 231 230 235 242 246 249 256 260 263 266 269 268 261 255 236 228 231 228 223 223 224 227 231 231 233 238 240 238 234 232 226 219 219 222 222 224 226 227 227 224 219 214 211 210 208 208 207 208 211 213 215 218 221 224 224 223 225 230 236 240 245 249 246 242 237 232 232 231 229 229 232 236 241 245 248 251 250 250 256 262 262 244 207 184 183 184 182 187 26 33 30 39 47 33 21 12
232 232 234 238 240 245 251 258 265 266 266 268 266 260 254 251 247 239 227 222 222 224 228 231 231 234 237 239 240 236 234 232 226 223 224 225 226 227 229 232 230 226 221 217 214 212 212 212 213 214 214 215 217 220 225 227 227 228 231 235 237 241 242 238 235 234 231 229 226 225 226 229 234 237 241 245 246 247 249 254 255 247 223 192 183 190 195 197 223 283 7 35 54 27 13 9 5
230 234 238 241 243 248 254 261 266 266 258 252 260 257 241 248 255 238 217 217 221 225 230 233 235 239 241 241 242 240 237 234 231 228 226 228 230 231 231 232 230 226 225 224 220 217 215 216 216 217 216 216 216 218 222 225 228 230 232 236 237 238 238 235 234 235 237 236 231 228 228 228 232 236 240 243 244 246 251 252 245 231 212 189 188 200 206 213 228 254 334 41 44 2 4 5 5
232 235 239 244 249 251 257 264 263 261 247 243 252 254 244 246 253 240 224 225 229 228 230 233 236 239 242 244 244 243 240 236 232 230 227 227 229 232 234 233 230 225 224 225 224 222 220 219 219 219 219 218 218 218 220 223 227 231 235 238 239 238 239 237 236 237 242 245 242 237 235 234 234 237 240 242 243 247 251 246 230 218 205 190 196 210 214 222 238 262 305 314 311 345 355 357 2
230 232 236 243 250 252 257 261 253 243 246 246 250 253 247 238 245 245 243 245 241 235 234 235 237 238 240 245 245 244 243 239 235 232 229 227 226 227 229 230 228 225 223 223 224 224 224 224 223 222 222 222 221 221 222 224 226 230 235 238 240 240 241 242 241 240 243 248 248 243 240 237 234 237 240 241 243 248 248 234 218 208 195 188 197 213 219 228 257 291 322 334 321 334 347 351 357
227 228 228 229 241 246 247 252 245 240 252 252 252 253 245 242 251 252 251 254 248 240 240 242 243 244 246 249 249 245 242 240 236 233 232 228 225 224 225 226 225 225 226 226 225 225 225 226 226 226 225 224 225 225 226 228 228 230 234 237 241 242 243 247 247 243 241 243 243 240 237 235 235 237 239 239 245 247 238 221 209 199 192 193 196 204 215 225 269 320 334 338 330 337 345 347 352
223 224 221 214 209 213 224 232 251 257 255 251 252 251 244 248 256 254 250 255 256 247 245 246 248 252 256 258 257 249 243 243 240 236 233 231 228 226 226 225 224 226 229 230 230 229 226 225 226 228 228 226 227 228 228 230 231 231 233 236 240 242 243 247 250 249 245 240 236 233 232 232 232 234 233 232 237 235 224 210 199 194 194 196 194 193 194 185 162 142 111 345 349 348 348 349 351
222 225 223 220 220 215 210 217 218 257 263 246 236 236 235 244 253 254 250 254 257 253 250 248 250 255 259 258 256 251 245 246 246 241 236 234 232 230 229 229 227 227 230 231 232 233 231 229 228 228 228 228 229 229 230 232 234 234 235 236 238 241 244 245 248 250 249 243 234 228 228 228 229 229 225 222 224 221 212 199 191 193 196 194 193 191 181 172 170 180 223 347 357 352 350 351 354
227 226 225 225 227 226 233 255 249 258 279 245 219 225 241 251 258 259 255 253 253 251 250 246 246 252 255 252 249 247 246 247 250 248 243 237 234 232 232 233 231 228 229 230 230 231 233 234 233 231 229 229 231 232 232 233 235 236 238 238 239 240 242 244 246 248 249 245 234 225 224 224 226 225 219 215 214 211 204 194 189 194 198 198 196 194 190 189 195 221 254 307 334 342 349 353 358
226 223 224 227 230 231 235 255 260 259 276 251 223 232 245 253 261 258 252 252 248 245 249 245 243 249 251 249 247 245 244 246 249 251 248 240 235 234 234 235 235 230 227 227 227 228 230 234 236 236 233 231 232 233 234 234 234 236 239 240 240 240 240 243 245 247 248 246 235 224 219 219 220 218 212 208 206 204 200 193 191 195 201 204 202 198 200 205 216 237 260 285 316 337 351 356 360
225 223 227 229 232 234 232 239 257 248 253 255 226 233 243 240 247 249 243 244 244 242 247 248 246 247 247 248 248 246 245 247 248 251 251 245 239 236 237 238 236 231 227 225 224 226 230 233 235 237 237 235 234 234 234 234 234 236 238 240 241 241 239 241 243 244 246 243 234 223 217 215 214 211 207 204 202 200 198 195 195 198 203 206 205 205 211 218 225 237 258 281 302 326 338 343 347
230 231 233 227 219 222 222 220 235 227 234 275 233 231 245 239 235 237 234 236 241 241 244 247 246 245 246 248 250 249 248 247 247 249 249 246 241 237 239 239 234 230 227 224 225 229 232 233 232 233 235 237 237 236 236 236 236 236 238 240 242 242 240 239 241 242 241 237 229 222 217 212 210 208 205 202 201 200 198 197 198 201 205 208 209 214 221 229 233 237 250 270 288 305 317 322 328
229 233 237 234 227 223 219 217 222 218 218 261 247 232 247 244 240 237 235 235 238 237 238 243 244 242 245 249 252 252 250 246 246 246 244 241 238 236 236 235 232 229 226 222 225 230 230 231 231 229 229 230 231 233 234 235 235 236 237 238 240 241 239 238 239 240 238 232 227 222 217 211 208 205 204 202 202 202 202 201 201 203 207 212 217 224 231 238 242 243 246 258 276 292 301 306 313
219 223 226 228 229 227 224 223 225 225 219 212 216 251 250 248 245 241 239 237 237 237 237 241 247 248 247 248 252 255 254 250 246 242 241 237 234 233 232 231 230 228 228 228 229 230 229 230 231 229 228 228 229 230 231 232 232 233 235 236 238 238 237 236 237 238 234 227 224 221 216 212 207 204 203 202 202 203 205 205 205 205 208 216 223 230 237 242 245 247 247 252 267 282 291 294 301
219 220 221 222 222 216 212 223 224 223 227 224 211 252 258 255 251 246 243 240 240 241 239 239 246 251 249 246 249 255 255 253 248 242 239 236 232 229 228 229 229 228 229 231 231 231 231 232 231 230 230 229 227 227 230 231 231 232 233 234 235 236 236 236 237 237 231 222 219 218 216 213 208 203 202 202 203 205 207 208 209 209 212 219 226 232 238 243 246 251 253 256 264 273 280 284 290